date,time,DOY,Ta_1_1_1,RH_1_1_1,LWin_1_1_1,LWout_1_1_1,SWin_1_1_1,SWout_1_1_1,PPFD_1_1_1,SWC_1_1_1,Ts_1_1_1
[yyyy-mm-dd],[HH:MM],[ddd.ddd],[K],[%],[W+1m-2],[W+1m-2],[W+1m-2],[W+1m-2],[µmol+1m-2s-1],[m+3m-3],[K]
2013-07-22,00:30,203.020,287.03433333333339,96.526999999999973,-8.1256666666666675,-9999.0,0.25466666666666676,-3.4880000000000000,0.0000000000000000,-9999.0,273.15999999999991
2013-07-22,01:00,203.041,286.88300000000004,96.196666666666687,-7.6950000000000012,-9999.0,0.21133333333333335,-3.5386666666666673,0.0000000000000000,-9999.0,273.15999999999991
2013-07-22,01:30,203.062,286.78933333333339,96.367666666666679,-7.2653333333333343,-9999.0,0.18633333333333330,-3.3239999999999998,0.0000000000000000,-9999.0,273.15999999999991
2013-07-22,02:00,203.083,286.69600000000003,97.227666666666678,-6.5786666666666651,-9999.0,-0.11666666666666667,-1.8580000000000001,0.0000000000000000,-9999.0,273.15999999999991
2013-07-22,02:30,203.104,286.73966666666672,98.256333333333302,-6.8979999999999979,-9999.0,-0.22866666666666671,-1.7946666666666666,0.0000000000000000,-9999.0,273.15999999999991
2013-07-22,03:00,203.124,286.77066666666673,98.504666666666679,-7.0039999999999987,-9999.0,-5.00000000000000167E-002,-2.3353333333333337,0.0000000000000000,-9999.0,273.15999999999991
2013-07-22,03:30,203.145,286.70799999999997,98.543000000000021,-7.0743333333333309,-9999.0,-2.20000000000000022E-002,-2.3823333333333330,0.0000000000000000,-9999.0,273.15999999999991
2013-07-22,04:00,203.166,286.65166666666670,98.593666666666650,-6.5906666666666656,-9999.0,-0.14699999999999999,-1.8976666666666666,2.36666666666666692E-002,-9999.0,273.15999999999991
2013-07-22,04:30,203.187,286.59300000000002,98.722000000000023,-6.2906666666666657,-9.9299999999999997,-0.15600000000000000,-0.20000000000000009,1.7023333333333335,-9999.0,273.15999999999991
2013-07-22,05:00,203.208,286.55099999999999,98.902333333333317,-6.1226666666666647,-9.9299999999999997,1.3880000000000001,8.6226666666666656,17.772666666666666,-9999.0,273.15999999999991
2013-07-22,05:30,203.229,286.59033333333343,99.069666666666663,-5.5433333333333330,-8.7200000000000006,5.0233333333333325,30.718000000000004,62.174999999999990,-9999.0,273.15999999999991
2013-07-22,06:00,203.249,286.87700000000001,99.072333333333304,-5.5950000000000006,-9999.0,11.254999999999999,67.173333333333346,134.71533333333335,-9999.0,273.15999999999991
2013-07-22,06:30,203.270,287.39566666666667,98.250333333333359,-5.3303333333333320,-7.1866666666666674,13.590666666666667,80.421666666666653,162.55500000000001,-9999.0,273.15999999999991
2013-07-22,07:00,203.291,287.86833333333340,97.328999999999994,-5.8496666666666650,-7.2000000000000002,12.668333333333335,76.081333333333319,158.13433333333333,-9999.0,273.15999999999991
2013-07-22,07:30,203.312,288.43233333333330,96.722333333333353,-5.3743333333333352,-7.1160000000000023,21.909000000000002,130.89800000000000,269.09966666666668,-9999.0,273.15999999999991
2013-07-22,08:00,203.333,289.18366666666662,95.182999999999993,-5.2550000000000008,-7.5770000000000017,28.169000000000000,167.60866666666664,343.37699999999990,-9999.0,273.15999999999991
2013-07-22,08:30,203.354,290.00799999999987,92.037666666666652,-4.8026666666666653,-8.7359999999999989,62.122333333333330,372.50900000000001,743.59600000000012,-9999.0,273.15999999999991
2013-07-22,09:00,203.374,290.68066666666670,89.293999999999969,-5.4056666666666651,-9999.0,59.030333333333324,358.81533333333334,726.10466666666650,-9999.0,273.15999999999991
2013-07-22,09:30,203.395,291.56800000000010,85.327999999999989,-4.6956666666666678,-9999.0,99.027999999999992,607.13400000000001,1215.0749999999996,-9999.0,273.15999999999991
2013-07-22,10:00,203.416,292.76766666666668,80.332666666666682,-5.0940000000000003,-9999.0,115.84233333333330,722.31366666666656,1463.4093333333333,-9999.0,273.15999999999991
2013-07-22,10:30,203.437,293.96833333333336,75.540999999999997,-5.6070000000000002,-9999.0,100.56066666666666,628.49133333333339,1269.5473333333332,-9999.0,273.15999999999991
2013-07-22,11:00,203.458,294.97599999999994,71.075666666666677,-5.9190000000000005,-9999.0,120.15166666666667,761.69033333333357,1557.1390000000001,-9999.0,273.15999999999991
2013-07-22,11:30,203.479,294.38166666666672,73.259999999999977,-7.9473076923076924,-9999.0,50.863000000000007,308.47633333333340,627.15433333333317,-9999.0,273.15999999999991
2013-07-22,12:00,203.499,294.65066666666678,72.377333333333354,-4.6713333333333340,-9999.0,108.56400000000004,678.45599999999990,1383.1220000000001,-9999.0,273.15999999999991
2013-07-22,12:30,203.520,295.95733333333334,68.046666666666653,-6.1633333333333322,-9999.0,117.70933333333333,762.85666666666680,1558.7379999999996,-9999.0,273.15999999999991
2013-07-22,13:00,203.541,296.57433333333336,65.874666666666670,-5.5286666666666671,-9999.0,116.99499999999999,756.69800000000009,1560.7079999999996,-9999.0,273.15999999999991
2013-07-22,13:30,203.562,297.35366666666670,63.414999999999999,-6.9745454545454546,-9999.0,85.978000000000023,557.10100000000000,1138.3356666666666,-9999.0,273.15999999999991
2013-07-22,14:00,203.583,296.78100000000006,65.756000000000000,-8.7255000000000003,-9999.0,40.573333333333352,245.18733333333333,511.07366666666655,-9999.0,273.15999999999991
2013-07-22,14:30,203.604,297.35666666666663,63.822333333333326,-7.3166666666666673,-9999.0,62.519000000000013,383.86866666666680,788.29433333333350,-9999.0,273.15999999999991
2013-07-22,15:00,203.624,296.90699999999998,67.035333333333327,-9.1741379310344815,-9999.0,32.981666666666662,203.51533333333333,427.02499999999998,-9999.0,273.15999999999991
2013-07-22,15:30,203.645,296.26900000000001,73.295333333333318,-9.7068750000000001,-9999.0,15.950333333333333,94.574000000000012,211.13000000000000,-9999.0,273.15999999999991
2013-07-22,16:00,203.666,295.17333333333335,82.846999999999994,-9.0237931034482752,-9999.0,8.6946666666666665,49.477333333333341,116.53333333333332,-9999.0,273.15999999999991
2013-07-22,16:30,203.687,295.16700000000003,85.519666666666652,-8.6983333333333341,-9999.0,15.544333333333334,86.198333333333323,186.55466666666669,-9999.0,273.15999999999991
2013-07-22,17:00,203.708,295.71133333333341,84.388999999999996,-7.4036363636363633,-9999.0,46.510000000000012,269.88933333333330,560.17300000000000,-9999.0,273.15999999999991
2013-07-22,17:30,203.729,294.70666666666676,82.841666666666669,-8.0047826086956508,-9999.0,32.621333333333332,181.96866666666673,375.43466666666666,-9999.0,273.15999999999991
2013-07-22,18:00,203.749,294.51166666666666,78.113666666666660,-9.3575000000000017,-9999.0,57.293666666666653,297.26066666666674,590.65433333333328,-9999.0,273.15999999999991
2013-07-22,18:30,203.770,293.19700000000006,72.956333333333333,-9.5999999999999996,-9999.0,39.949333333333328,186.73633333333333,371.62800000000004,-9999.0,273.15999999999991
2013-07-22,19:00,203.791,292.25833333333333,70.457333333333324,-9999.0,-9999.0,25.629666666666665,99.371000000000009,200.01666666666671,-9999.0,273.15999999999991
2013-07-22,19:30,203.812,291.38866666666672,71.818333333333342,-9.9100000000000001,-9999.0,12.226000000000003,36.348333333333343,73.605666666666650,-9999.0,273.15999999999991
2013-07-22,20:00,203.833,290.49733333333336,74.007000000000019,-8.6433333333333326,-9999.0,1.1939999999999995,0.21200000000000022,9.4109999999999978,-9999.0,273.15999999999991
2013-07-22,20:30,203.854,289.92066666666670,76.778333333333350,-9.3672413793103448,-9999.0,0.62400000000000011,-4.4556666666666676,0.23066666666666669,-9999.0,273.15999999999991
2013-07-22,21:00,203.874,289.39066666666662,78.987666666666684,-8.9819999999999993,-9999.0,0.57099999999999995,-4.4253333333333336,0.0000000000000000,-9999.0,273.15999999999991
2013-07-22,21:30,203.895,288.82600000000002,81.180333333333365,-9.0853333333333328,-9999.0,0.66933333333333345,-4.4673333333333325,0.0000000000000000,-9999.0,273.15999999999991
2013-07-22,22:00,203.916,288.44999999999999,80.789333333333332,-8.4563333333333350,-9999.0,0.73400000000000010,-4.3273333333333328,0.0000000000000000,-9999.0,273.15999999999991
2013-07-22,22:30,203.937,287.90833333333336,80.776666666666671,-8.0700000000000003,-9999.0,0.62933333333333330,-4.3086666666666664,1.00000000000000002E-003,-9999.0,273.15999999999991
2013-07-22,23:00,203.958,287.47866666666670,80.778999999999982,-7.8370000000000024,-9999.0,0.68733333333333313,-4.2290000000000001,0.0000000000000000,-9999.0,273.15999999999991
2013-07-22,23:30,203.979,287.09100000000007,81.139333333333326,-7.9713333333333320,-9999.0,0.72033333333333305,-4.2930000000000001,0.0000000000000000,-9999.0,273.15999999999991
2013-07-23,00:00,204.000,286.83200000000011,82.227333333333334,-8.5133333333333319,-9999.0,0.84000000000000008,-4.4403333333333332,0.0000000000000000,-9999.0,273.15999999999991
